sat.trackr.live / text

‹ back to catalog

STARLINK-33578

NORAD 63368 · 2025-063F

PAYLOAD ACTIVE UNKNOWN

§ Identity

Operator
Country
US
Launch date
2025-03-26
Launch site
AFWTR
Launch vehicle
Mass (kg)
RCS (m²)

Purposes: comms

External: N2YO · Heavens-Above · Gunter

§ Orbital elements

Epoch: 2026-09-20T09:57:19.965888Z

Period
93.85 min
Inclination
53.1582°
Eccentricity
0.0001318
Mean motion
15.34417729 rev/d
Perigee alt
461.7 km
Apogee alt
463.6 km
Semi-major
6,840.8 km
B*
4.9766e-4
RAAN
222.2475°
Arg perigee
95.5205°
Mean anomaly
264.5948°
Rev number
8,459

§ Raw data

STARLINK-335781 63368U 25063F   26263.41481442  .00016484  00000+0  49766-3 0  99962 63368  53.1582 222.2475 0001318  95.5205 264.5948 15.34417729 84592

JSON: /api/v1/satellites/63368 · /tle

For live sub-satellite position, see the globe view (requires WebGL).

§ Visibility from observer

Set your observer location to see the next 7 days of passes ≥ 10°. The values pass through the URL so the page stays shareable.

No JS? Fill the form by hand. The geolocation button needs JavaScript.